• In Belarus
  • List of Countries
  • For 7 days
  • Water Temperature
  • Weather Map
  • Weather Widgets
  • user-avatar
    Login

    Hourly Weather Kommuna

    Today, 7 April, Tuesday

    Time Temperature Precipitation Wind Pressure Humidity
    00:00 -1°C° 0 mm 2 mps 672 mmHg 82%
    01:00 -1°C° 0 mm 2 mps 672 mmHg 81%
    02:00 0°C° 0 mm 1 mps 672 mmHg 79%
    03:00 +1°C° 0 mm 1 mps 672 mmHg 74%
    04:00 0°C° 0 mm 1 mps 672 mmHg 74%
    05:00 0°C° 0 mm 1 mps 673 mmHg 74%
    06:00 0°C° 0 mm 1 mps 673 mmHg 74%
    07:00 +1°C° 0 mm 1 mps 673 mmHg 68%
    08:00 +1°C° 0 mm 2 mps 673 mmHg 61%
    09:00 +2°C° 0 mm 2 mps 674 mmHg 55%
    10:00 +1°C° 0 mm 3 mps 674 mmHg 56%
    11:00 +2°C° 0 mm 3 mps 674 mmHg 56%
    12:00 +2°C° 0 mm 3 mps 674 mmHg 57%
    13:00 +2°C° 0.2 mm 3 mps 674 mmHg 63%
    14:00 +1°C° 0.2 mm 3 mps 673 mmHg 69%
    15:00 0°C° 0 mm 3 mps 673 mmHg 76%
    16:00 -1°C° 0.3 mm 3 mps 673 mmHg 79%
    17:00 -1°C° 0.3 mm 2 mps 673 mmHg 83%
    18:00 -2°C° 0.3 mm 2 mps 673 mmHg 86%
    19:00 -3°C° 0.2 mm 2 mps 674 mmHg 87%
    20:00 -3°C° 0.2 mm 2 mps 674 mmHg 89%
    21:00 -4°C° 0.2 mm 2 mps 674 mmHg 90%
    22:00 -2°C° 0.1 mm 1 mps 674 mmHg 90%
    23:00 -3°C° 0.1 mm 1 mps 675 mmHg 91%

    Tomorrow, 8 April, Wednesday

    Time Temperature Precipitation Wind Pressure Humidity
    00:00 -3°C° 0.1 mm 1 mps 675 mmHg 91%
    01:00 -3°C° 0.1 mm 1 mps 675 mmHg 90%
    02:00 -3°C° 0.1 mm 1 mps 674 mmHg 90%
    03:00 -4°C° 0.1 mm 1 mps 674 mmHg 90%
    04:00 -4°C° 0 mm 1 mps 675 mmHg 87%
    05:00 -4°C° 0 mm 1 mps 675 mmHg 85%
    06:00 -5°C° 0 mm 0 mps 675 mmHg 83%
    07:00 -2°C° 0 mm 1 mps 675 mmHg 75%
    08:00 -1°C° 0 mm 1 mps 676 mmHg 67%
    09:00 +1°C° 0 mm 1 mps 676 mmHg 60%
    10:00 +2°C° 0 mm 1 mps 676 mmHg 55%
    11:00 +4°C° 0 mm 1 mps 676 mmHg 50%
    12:00 +4°C° 0 mm 2 mps 675 mmHg 44%
    13:00 +5°C° 0 mm 2 mps 675 mmHg 45%
    14:00 +5°C° 0 mm 2 mps 675 mmHg 46%
    15:00 +6°C° 0 mm 2 mps 674 mmHg 47%
    16:00 +5°C° 0 mm 2 mps 674 mmHg 53%
    17:00 +5°C° 0 mm 1 mps 673 mmHg 59%
    18:00 +4°C° 0 mm 1 mps 673 mmHg 65%
    19:00 +3°C° 0 mm 2 mps 672 mmHg 63%
    20:00 +2°C° 0 mm 2 mps 672 mmHg 62%
    21:00 +2°C° 0 mm 2 mps 672 mmHg 60%
    22:00 +2°C° 0 mm 2 mps 671 mmHg 57%
    23:00 +1°C° 0 mm 2 mps 670 mmHg 54%

    Day after tomorrow, 9 April, Thursday

    Time Temperature Precipitation Wind Pressure Humidity
    00:00 +1°C° 0 mm 2 mps 670 mmHg 51%
    01:00 +1°C° 0 mm 2 mps 669 mmHg 48%
    02:00 +1°C° 0 mm 2 mps 668 mmHg 45%
    03:00 +2°C° 0 mm 2 mps 668 mmHg 43%
    04:00 +2°C° 0 mm 2 mps 667 mmHg 40%
    05:00 +3°C° 0 mm 1 mps 667 mmHg 37%
    06:00 +4°C° 0 mm 1 mps 667 mmHg 34%
    07:00 +6°C° 0 mm 1 mps 667 mmHg 32%
    08:00 +8°C° 0 mm 1 mps 667 mmHg 31%
    09:00 +10°C° 0 mm 1 mps 668 mmHg 29%
    10:00 +10°C° 0 mm 1 mps 668 mmHg 30%
    11:00 +10°C° 0 mm 2 mps 668 mmHg 32%
    12:00 +12°C° 0 mm 2 mps 668 mmHg 34%
    13:00 +12°C° 0 mm 2 mps 667 mmHg 37%
    14:00 +11°C° 0 mm 3 mps 667 mmHg 41%
    15:00 +11°C° 0 mm 3 mps 666 mmHg 44%
    16:00 +10°C° 0 mm 2 mps 666 mmHg 52%
    17:00 +8°C° 0 mm 2 mps 666 mmHg 60%
    18:00 +7°C° 0 mm 2 mps 666 mmHg 67%
    19:00 +7°C° 0 mm 1 mps 666 mmHg 71%
    20:00 +6°C° 0 mm 1 mps 666 mmHg 74%
    21:00 +4°C° 0 mm 0 mps 666 mmHg 77%
    22:00 +4°C° 0 mm 0 mps 666 mmHg 76%
    23:00 +4°C° 0 mm 0 mps 665 mmHg 75%

    10 April, Friday

    Time Temperature Precipitation Wind Pressure Humidity
    00:00 +4°C° 0 mm 0 mps 665 mmHg 74%
    01:00 +3°C° 0 mm 0 mps 665 mmHg 74%
    02:00 +3°C° 0 mm 0 mps 665 mmHg 74%
    03:00 +3°C° 0 mm 0 mps 664 mmHg 74%
    04:00 +3°C° 0 mm 0 mps 664 mmHg 72%
    05:00 +3°C° 0 mm 0 mps 664 mmHg 71%
    06:00 +3°C° 0 mm 0 mps 665 mmHg 70%
    07:00 +6°C° 0 mm 1 mps 665 mmHg 66%
    08:00 +7°C° 0 mm 1 mps 665 mmHg 61%
    09:00 +9°C° 0 mm 1 mps 665 mmHg 57%
    10:00 +9°C° 0 mm 2 mps 665 mmHg 56%
    11:00 +10°C° 0 mm 2 mps 665 mmHg 54%
    12:00 +12°C° 0 mm 2 mps 665 mmHg 53%
    13:00 +11°C° 0 mm 3 mps 665 mmHg 56%
    14:00 +10°C° 0 mm 3 mps 665 mmHg 59%
    15:00 +10°C° 0 mm 3 mps 664 mmHg 62%
    16:00 +9°C° 0 mm 2 mps 664 mmHg 67%
    17:00 +9°C° 0 mm 2 mps 664 mmHg 72%
    18:00 +9°C° 0 mm 1 mps 664 mmHg 77%
    19:00 +8°C° 0 mm 1 mps 664 mmHg 79%
    20:00 +8°C° 0 mm 1 mps 664 mmHg 82%
    21:00 +6°C° 0 mm 0 mps 664 mmHg 84%
    22:00 +6°C° 0 mm 0 mps 664 mmHg 83%
    23:00 +5°C° 0 mm 0 mps 664 mmHg 81%

    11 April, Saturday

    Time Temperature Precipitation Wind Pressure Humidity
    00:00 +6°C° 0 mm 1 mps 663 mmHg 80%
    01:00 +5°C° 0 mm 0 mps 663 mmHg 78%
    02:00 +4°C° 0 mm 0 mps 663 mmHg 76%
    03:00 +4°C° 0 mm 0 mps 663 mmHg 74%
    04:00 +4°C° 0 mm 0 mps 663 mmHg 73%
    05:00 +5°C° 0 mm 0 mps 663 mmHg 73%
    06:00 +5°C° 0 mm 0 mps 663 mmHg 72%
    07:00 +7°C° 0 mm 1 mps 663 mmHg 72%
    08:00 +7°C° 0 mm 1 mps 664 mmHg 72%
    09:00 +8°C° 0 mm 1 mps 664 mmHg 72%
    10:00 +7°C° 0.2 mm 2 mps 664 mmHg 76%
    11:00 +7°C° 0.2 mm 2 mps 664 mmHg 80%
    12:00 +7°C° 0.2 mm 2 mps 663 mmHg 83%
    13:00 +7°C° 0.3 mm 2 mps 663 mmHg 85%
    14:00 +7°C° 0.3 mm 2 mps 663 mmHg 86%
    15:00 +7°C° 0.3 mm 2 mps 663 mmHg 88%
    16:00 +8°C° 0.3 mm 1 mps 663 mmHg 90%
    17:00 +7°C° 0.3 mm 1 mps 663 mmHg 91%
    18:00 +7°C° 0.3 mm 1 mps 663 mmHg 93%
    19:00 +7°C° 0.2 mm 1 mps 664 mmHg 93%
    20:00 +7°C° 0.2 mm 1 mps 664 mmHg 93%
    21:00 +7°C° 0.2 mm 1 mps 664 mmHg 94%
    22:00 +6°C° 0.2 mm 1 mps 665 mmHg 94%
    23:00 +6°C° 0.2 mm 1 mps 665 mmHg 94%

    12 April, Sunday

    Time Temperature Precipitation Wind Pressure Humidity
    00:00 +6°C° 0.2 mm 1 mps 665 mmHg 94%
    01:00 +6°C° 0.2 mm 1 mps 665 mmHg 94%
    02:00 +6°C° 0.2 mm 1 mps 665 mmHg 94%
    03:00 +6°C° 0.2 mm 1 mps 665 mmHg 94%
    04:00 +5°C° 0.2 mm 1 mps 666 mmHg 93%
    05:00 +5°C° 0.2 mm 1 mps 666 mmHg 92%
    06:00 +5°C° 0.2 mm 1 mps 666 mmHg 92%
    07:00 +4°C° 0.2 mm 2 mps 666 mmHg 88%
    08:00 +5°C° 0.2 mm 2 mps 667 mmHg 85%
    09:00 +5°C° 0.2 mm 2 mps 667 mmHg 81%
    10:00 +5°C° 0.3 mm 2 mps 667 mmHg 82%
    11:00 +6°C° 0.3 mm 2 mps 667 mmHg 83%
    12:00 +6°C° 0.3 mm 2 mps 667 mmHg 84%
    13:00 +6°C° 0.4 mm 2 mps 667 mmHg 86%
    14:00 +6°C° 0.4 mm 2 mps 667 mmHg 89%
    15:00 +5°C° 0.4 mm 2 mps 667 mmHg 92%
    16:00 +5°C° 0.5 mm 2 mps 667 mmHg 92%
    17:00 +5°C° 0.5 mm 1 mps 667 mmHg 93%
    18:00 +5°C° 0.5 mm 1 mps 667 mmHg 93%
    19:00 +5°C° 0.3 mm 1 mps 668 mmHg 94%
    20:00 +4°C° 0.3 mm 1 mps 668 mmHg 94%
    21:00 +4°C° 0.3 mm 1 mps 669 mmHg 95%
    22:00 +4°C° 0.2 mm 1 mps 669 mmHg 94%
    23:00 +3°C° 0.2 mm 1 mps 669 mmHg 94%
    Show more